Погода в Восточном

Россия / Астраханская область     46°07′23″N   47°40′12″E
темп.,
°C
ветер,
м/с
пор.,
м/с
влажн.,
%
обл.,
%
осадки,
мм/ч
давл.,
гПа
погр.,
м
24 сентября, пт
пт2401:00+14ссз6785100 2.1 1011339
04:00+14ссв6988100 2.3 1009358
07:00+15с71085100 0.0 1007463
10:00+16ссз998086 0.0 1007632
13:00+17сз9969100 0.0 1007766
16:00+16сз9117019 0.0 1009781
19:00+14зсз91180100 0.0 1011648
22:00+13зсз81172100 0.0 1012625
25 сентября, сб
сб2501:00+12зсз6107599 0.0 1013454
04:00+12зсз57770 0.0 1013248
07:00+12зсз35810 0.0 1013147
10:00+14з2267100 0.0 1013488
13:00+17юз2251100 0.0 1012706
16:00+18зсз3348100 0.0 1012603
19:00+17сз1256100 0.0 101414
22:00+17зюз2255100 0.0 101415
26 сентября, вс
вс2601:00+14зюз4884100 0.9 1015443
04:00+14зюз71074100 1.1 1015669
07:00+13з710810 0.2 1016422
10:00+15з810645 0.2 1016757
13:00+18з795225 0.1 10151328
16:00+17з71049100 0.1 10151432
19:00+16з71155100 0.0 1014623
22:00+15зюз8137298 0.9 10131015
27 сентября, пн
пн2701:00+15зюз10168291 1.4 10111003
04:00+16з10157777 1.9 1010893
07:00+15з914742 0.3 1011860
10:00+15зсз1012630 0.3 10121168
13:00+17зсз911505 0.0 10121777
16:00+17зсз911445 0.0 10131722
19:00+15ссз8105125 0.0 1014814
22:00+13сз58566 0.0 1016427
28 сентября, вт
вт2801:00+13зсз57635 0.0 1016293
04:00+12зсз57695 0.0 1017243
07:00+11зсз46725 0.0 1018192
10:00+14сз456375 0.0 1019445
13:00+16сз446054 0.0 1020653
16:00+17сз555529 0.0 10201058
19:00+16с345995 0.1 1022165
22:00+14ссв6757100 0.2 1024585